RH
82 88 100 64 70 56 93 84 60 71 68 42 39 26 19 22 18 20 23 27 19 18 15 14 15 19 24
89 100 99 62 74 68 52 100 86 72 68 58 47 37 26 23 21 17 19 32 30 24 21 17 18 21 24
90 100 100 70 70 92 61 59 68 100 98 74 65 52 26 27 22 18 16 21 33 28 24 20 22 22 23
91 100 100 89 55 81 92 77 65 100 94 78 50 51 32 36 23 22 16 18 31 28 27 18 19 21 28
99 100 100 96 67 53 46 57 69 100 84 93 53 56 31 30 24 26 16 18 30 26 22 22 22 23 30
100 76 100 100 85 66 44 41 84 97 66 100 77 56 43 27 24 29 19 18 25 30 24 25 26 29 38
100 76 98 100 94 85 54 46 97 99 60 87 74 59 50 26 22 23 22 23 25 35 29 28 29 33 35
100 98 100 91 96 92 92 71 100 100 97 99 78 74 54 32 20 20 20 29 31 27 39 39 41 40 52
100 100 100 100 100 93 54 65 98 89 99 85 88 82 56 41 18 19 21 43 43 27 39 43 47 38 65
100 100 100 100 100 100 83 65 89 88 100 79 100 72 64 48 22 18 20 45 40 28 40 61 53 37 43
100 100 100 100 100 86 100 86 73 88 86 100 92 42 72 46 24 20 22 43 57 39 41 70 61 42 37
100 100 100 100 100 83 100 100 96 89 70 85 68 69 90 51 31 22 24 47 62 39 35 51 51 47 41
96 100 100 100 100 100 100 100 88 84 72 82 52 74 92 64 30 24 25 39 55 47 45 45 43 54 55
79 100 100 100 100 100 100 99 100 91 71 72 71 100 93 60 31 28 28 28 33 48 55 60 41 40 70
98 100 100 100 100 94 100 100 78 95 83 78 74 81 96 44 39 35 30 28 33 52 76 59 49 54 59
100 100 100 100 100 100 100 100 96 100 100 88 74 73 86 54 48 41 34 31 36 61 89 75 57 58 60
100 99 100 100 100 100 100 94 89 92 100 91 79 100 77 80 53 50 35 36 37 66 83 70 69 64 65
Wind_Speed
72 76 70 66 59 56 48 46 43 34 35 31 29 20 21 25 30 30 31 32 29 28 29 29 34 36 41
77 81 76 73 67 62 57 50 44 37 35 34 30 22 26 25 31 30 32 33 31 33 29 32 34 37 41
82 85 83 78 71 62 60 52 47 40 43 38 34 28 21 25 26 29 34 36 35 35 35 35 35 39 44
90 88 87 82 78 69 61 57 54 49 45 40 36 33 28 23 26 31 33 32 37 38 38 34 36 39 43
100 89 90 82 75 69 63 59 60 53 47 40 38 36 29 27 33 33 30 30 35 38 41 38 40 43 46
101 92 89 85 76 75 71 65 60 56 54 50 46 41 31 39 37 37 31 31 36 36 41 43 43 46 49
99 97 88 83 77 80 74 69 66 66 60 53 46 41 42 38 39 38 33 34 35 40 39 44 45 46 51
97 92 91 84 79 81 79 77 77 67 59 51 47 44 41 38 42 38 36 38 38 40 39 45 47 48 49
105 99 97 91 86 82 85 78 71 66 63 54 49 45 42 42 43 39 40 42 42 38 41 45 45 51 50
106 106 104 97 93 86 83 79 76 71 64 55 59 50 45 48 41 43 42 44 45 40 44 48 49 49 54
121 115 113 102 97 92 84 83 76 72 66 62 62 56 51 47 45 43 43 44 47 43 45 49 52 51 54
137 130 118 110 103 96 90 88 82 77 73 68 66 58 55 51 48 42 41 45 49 44 46 48 53 54 53
138 138 132 114 105 98 94 94 89 83 78 75 66 65 60 56 50 45 44 47 51 49 50 52 54 57 52
140 136 134 123 115 101 96 90 85 83 79 74 65 70 62 61 54 43 47 50 51 50 51 53 56 57 53
140 137 135 126 116 114 98 91 87 84 79 77 71 73 65 58 50 49 49 53 53 51 53 54 58 60 60
142 138 133 126 120 106 101 95 91 90 85 81 72 69 70 64 56 51 52 52 51 52 55 59 57 61 61
145 140 136 127 118 112 104 98 96 93 87 79 72 73 67 65 61 56 56 53 53 55 58 62 58 63 63
Wind_Direction
217 218 217 222 219 220 219 223 232 235 234 245 243 255 284 289 296 308 314 329 334 319 314 315 315 321 332
218 220 221 226 220 221 218 219 229 233 234 243 238 247 268 276 288 299 307 316 330 333 321 312 319 323 327
217 222 222 226 220 217 219 219 225 222 229 235 235 244 259 265 282 293 306 308 320 329 329 325 319 320 323
218 221 223 223 225 216 215 219 221 223 227 233 232 240 249 261 285 290 297 308 312 321 324 325 324 324 325
221 219 222 222 222 222 224 220 220 223 227 232 230 239 241 260 284 282 295 307 311 318 323 322 321 322 323
219 217 222 221 221 228 227 226 222 222 226 226 226 233 240 266 281 276 282 294 301 310 314 322 322 325 327
216 219 220 224 223 226 229 219 223 224 228 226 230 234 242 270 269 276 282 287 294 301 311 317 319 321 325
214 217 221 221 221 222 217 216 220 222 226 230 231 232 245 260 269 277 283 281 291 296 301 307 315 318 320
213 216 218 218 219 220 219 219 219 223 225 226 226 239 245 254 263 275 287 276 283 293 300 302 309 317 318
213 217 217 217 219 221 221 219 220 223 222 229 223 236 240 248 261 272 278 272 280 288 292 298 303 311 314
214 217 218 218 218 221 221 221 224 224 225 223 229 244 240 245 255 274 272 272 278 283 291 295 299 304 312
218 218 221 220 220 220 221 227 228 226 228 228 236 236 232 241 255 265 276 271 276 280 284 293 298 299 307
217 218 221 220 221 220 223 227 232 233 237 231 234 231 229 238 254 260 280 270 274 276 281 287 295 297 305
216 219 221 221 223 222 224 226 229 231 235 230 232 228 230 239 256 255 274 266 274 276 280 284 291 298 301
215 216 220 219 222 225 224 225 231 228 230 234 230 232 239 247 248 257 263 267 271 273 277 283 287 294 297
214 213 217 220 223 222 223 225 230 229 236 237 233 234 232 244 248 258 257 267 271 275 276 277 286 292 294
213 214 219 223 221 222 223 226 228 233 236 232 232 231 237 234 253 259 251 266 273 271 272 277 284 290 292